sakupoker

Jackpot

Texas Poker Multi Jackpot System

Kini Telah hadir Jackpot SUPER ROYAL FLUSH

Kini Telah hadir Jackpot 2000 (khusus table VIP keatas).

Ikutilah global jackpot yang tersedia di system kami, dengan system jackpot terbaru dan pertama di indonesia, anda dapat membeli jackpot dengan harga 100 rupiah saja dan menangkan hadiahnya hingga puluhan juta rupiah.

Jackpot bukanlah suatu keharusan untuk dibeli, namun kami memberikan suatu fitur tambahan untuk member tercinta dari www.sakupoker.com.

Terdapat tiga pilihan harga jackpot yang bisa anda beli yaitu :100,500,1000 dan 2000(khusus table VIP Keatas) rupiah.

Hadiah dari Multi jackpot system www.sakupoker.com

  1. full house x 10 harga jackpot yang anda beli.
      (contoh:anda membeli 1000 maka:1000 X10 = 10.000)
  2. four of kind x 250 harga jackpot yang anda beli
      (contoh:anda membeli 1000 maka:1000 X250 = 250.000)
  3. Straight flush x 1200
      (contoh:anda membeli 1000 maka:1000 X1200 = 1.200.000)
  4. Royal flush x 10000 harga jackpot yang anda beli
      (contoh:anda membeli 1000 maka:1000 X10000 = 10.000.000)
  5. SUPER ROYAL FLUSH x 30000 harga jackpot yang anda beli
      (contoh:anda membeli 1000 maka:1000 X30000 = 30.000.000)

Kondisi kartu

  1. full house adalah kondisi kartu dimana kartu anda dan kartu tengah dengan total 7 kartu bisa mendapatkan nilai 5 kartu dengan kombinasi 1 tris(three of kind) dan 1 pair, contoh 3 kartu 10 dan 2 kartu 5
  2. Four of kind adalah kondisi kartu dimana kartu anda dan kartu tengah dengan total 7 kartu bisa mendapatkan nilai 5 kartu dengan kombinasi 4 kartu yang sama jumlah dan 1 kartu apapun juga contoh anda mendapatkan 4 buah kartu angka 3 dan 1 kartu apapun.
  3. Staright flush adalah kondisi kartu dimana kartu anda dan kartu tengah dengan total 7 kartu bisa mendapatkan nilai 5 kartu dengan kombinasi seri / staright dengan kembang yang sama contoh : urutan kartu dari angka 5, 6, 7, 8 , 9 10 dengan kembang yg sama misalnya as hati
  4. Royal flush adalah kondisi kartu dimana kartu anda dan kartu tengah dengan total 7 kartu bisa mendapatkan nilai 5 kartu dengan kombinasi seri / staright dengan kembang yang sama tetapi kartu tersebut haruslah dimulai dari 10. contoh 10, Queen, Jack, King dan aces dengan kembang yang sama
  5. Super Royal flush adalah kondisi kartu dimana Kedua kartu anda digabung dengan 3 kartu pertama meja haruslah royal flush. contoh kartu anda 10,Queen kembang sama dan 3 kartu pertama meja adalah Jack, King dan aces dengan kembang yang sama

Demikian adalah penjelasan dari Multi Jackpot www.sakupoker.com terima kasih dan selamat bermain salam hoki dari kami

Texas Poker Jackpot Winner

TOP SUPER ROYAL FLUSH
No.TanggalNamaPriceWin
118/10 15:21TEKAD13Super Royal flush3,000,000
218/10 15:05DODY415263Super Royal flush15,000,000
318/10 09:55BOND1107Super Royal flush30,000,000
418/10 04:31JONI2806Super Royal flush60,000,000
518/10 01:00JAWIR365Super Royal flush3,000,000
TOP ROYAL FLUSH
No.TanggalNamaPriceWin
118/10 15:46KEN5Royal flush5,000,000
218/10 15:22DAPOT999Royal flush5,000,000
318/10 15:22ROJOKOYO85Royal flush1,000,000
418/10 15:18MARWAN82Royal flush2,000,000
518/10 14:56ISUSU89Royal flush1,000,000
TOP STRAIGHT FLUSH
No.TanggalNamaPriceWin
118/10 15:58SUCISLALUStraight Flush240,000
218/10 15:57MUKLIS58Straight Flush240,000
318/10 15:55AMPAOO06Straight Flush600,000
418/10 15:52AL0NS014Straight Flush1,200,000
518/10 15:49JUHIRStraight Flush120,000
LATEST JACKPOT
No.TanggalNamaPriceWin
118/10 15:58LOMOK123Full House1,000
218/10 15:58F138CF12Full House2,000
318/10 15:58CBD8F114Full House2,000
418/10 15:58A22BD493Full House2,000
518/10 15:58A50BBE52Full House2,000
618/10 15:58CCFFDD8AFour Of A Kind50,000
718/10 15:58SUCISLALUStraight Flush240,000
818/10 15:58ARISXANDRAFull House20,000
918/10 15:58KTTFWSSXXYFull House1,000
1018/10 15:57P3TIR69Full House20,000
1118/10 15:57ACIK46Full House2,000
1218/10 15:57CCU6N62Y2VFull House1,000
1318/10 15:57BEDEBAHKAMFull House500
1418/10 15:57KATYUSHA06Full House5,000
1518/10 15:57SEHAN212Full House20,000
1618/10 15:57BG24BIRUFull House10,000
1718/10 15:57MAUPA13Full House20,000
1818/10 15:57BROKER22Full House1,000
1918/10 15:57PAUJI77Full House5,000
2018/10 15:57KOMITELFull House1,000
2118/10 15:57INDRA248Full House500
2218/10 15:57F1121NFull House1,000
2318/10 15:57JIAKAUFour Of A Kind50,000
2418/10 15:57SHINE66Full House5,000
2518/10 15:57TEMPOER123Full House10,000
2618/10 15:57BOLBIR81Full House2,000
2718/10 15:57YAKUZA_777Full House5,000
2818/10 15:57NEAZURI99Full House5,000
2918/10 15:57KALIKA88Full House2,000
3018/10 15:57RAMDHANI07Full House1,000
3118/10 15:57RISKIY08Four Of A Kind25,000
3218/10 15:57HOKX55Full House10,000
3318/10 15:57D71F0486Full House10,000
3418/10 15:57ALOY096Full House1,000
3518/10 15:57MUKLIS58Straight Flush240,000
3618/10 15:57HOWU_HOWUFull House2,000
3718/10 15:57ALAM_76Full House2,000
3818/10 15:57LATHOFull House10,000
3918/10 15:57H3RROFull House10,000
4018/10 15:57ATINS0904Full House1,000
4118/10 15:57LYNIESFull House2,000
4218/10 15:57DH3400Full House2,000
4318/10 15:57YULI5758Full House2,000
4418/10 15:57FASIHFull House5,000
4518/10 15:57COMPUTER5SFull House5,000
4618/10 15:57WAWANGWI45Full House10,000
4718/10 15:57GASS666Full House5,000
4818/10 15:57SILIT99999Four Of A Kind25,000
4918/10 15:57POKER687Full House2,000
5018/10 15:57H3NDRIK4Full House500

Domino Multi Jackpot System

Ikutilah global jackpot yang tersedia di system kami, dengan system jackpot terbaru dan pertama di indonesia, anda dapat membeli jackpot dengan harga 100 rupiah saja dan menangkan hadiahnya hingga puluhan juta rupiah.

Jackpot bukanlah suatu keharusan untuk dibeli, namun kami memberikan suatu fitur tambahan untuk member tercinta dari www.sakupoker.com.

Terdapat tiga pilihan harga jackpot yang bisa anda beli yaitu :100,500 dan 1000 rupiah.

Hadiah dari Multi jackpot system www.sakupoker.com

  1. Murni Kecil x 50 harga jackpot yang anda beli.
      (contoh:anda membeli 1000 maka:1000 X 50 = 50.000)
  2. Murni Besar x 50 harga jackpot yang anda beli
      (contoh:anda membeli 1000 maka:1000 X 50 = 50.000)
  3. BALAK x 100 harga jackpot yang anda beli
      (contoh:anda membeli 1000 maka:1000 X 100 = 100.000)
  4. ENAM DEWA x 6666 harga jackpot yang anda beli
      (contoh:anda membeli 1000 maka:1000 X 6666 = 6.666.000)

Demikian adalah penjelasan dari Multi Jackpot www.sakupoker.com terima kasih dan selamat bermain salam hoki dari kami

Domino Jackpot Winner

TOP ENAM DEWA
No.TanggalNamaPriceWin
118/10 15:58FN7N71L4P3murni enam3,333,000
218/10 10:20XIRIKmurni enam3,333,000
318/10 09:03KULU3murni enam666,600
418/10 07:09ANGGAR31murni enam3,333,000
518/10 05:08PD15murni enam3,333,000
TOP BALAK
No.TanggalNamaPriceWin
118/10 15:54NGAMEN_5balak10,000
218/10 15:52ARSY74balak50,000
318/10 15:51IQBALFAKOTbalak100,000
418/10 15:50KOBA2balak100,000
518/10 15:49CMD95884balak10,000
LATEST JACKPOT
No.TanggalNamaPriceWin
118/10 15:58ZOOMBIEmurni kecil50,000
218/10 15:58FN7N71L4P3murni enam3,333,000
318/10 15:57ALYANDO23murni kecil25,000
418/10 15:56CIHAAN35murni besar5,000
518/10 15:56A100JTmurni besar50,000
618/10 15:55JARWOSAKTImurni besar50,000
718/10 15:55ASEPSUANDImurni besar50,000
818/10 15:55GOTRI88murni besar50,000
918/10 15:54NGAMEN_5balak10,000
1018/10 15:54ADIETCAY89murni besar50,000
1118/10 15:54ALYANDO23murni kecil25,000
1218/10 15:53QYAmurni kecil50,000
1318/10 15:53HAHARmurni besar50,000
1418/10 15:52BRODIN9murni besar50,000
1518/10 15:52ARSY74balak50,000
1618/10 15:51IQBALFAKOTbalak100,000
1718/10 15:51T815IL4PK8murni besar25,000
1818/10 15:51PRANAYAPUTmurni besar5,000
1918/10 15:50KOBA2balak100,000
2018/10 15:50TEL0LET_69murni kecil5,000
2118/10 15:49CMD95884balak10,000
2218/10 15:49IQBALFAKOTmurni besar50,000
2318/10 15:49BUHOT17balak50,000
2418/10 15:48WAMPIRbalak100,000
2518/10 15:48QYAbalak100,000
2618/10 15:48GERUKbalak10,000
2718/10 15:48QQ_GOBANGbalak100,000
2818/10 15:47DEO66murni kecil25,000
2918/10 15:47DURG0murni kecil25,000
3018/10 15:46ASIKJRPOTTbalak100,000
3118/10 15:46RIGIT05murni besar50,000
3218/10 15:46NZWFEX0RRWmurni kecil5,000
3318/10 15:46LAMBAT55murni kecil5,000
3418/10 15:45XRV1PYHYNEmurni kecil50,000
3518/10 15:45QYAmurni kecil5,000
3618/10 15:45BOSSKU1234murni kecil5,000
3718/10 15:44DEVILITO10murni kecil50,000
3818/10 15:44JIRO89murni kecil50,000
3918/10 15:44TGMJAYAOKmurni besar50,000
4018/10 15:43MOKO01balak10,000
4118/10 15:43SKZSKIWQmurni kecil25,000
4218/10 15:42DENADA303murni besar25,000
4318/10 15:42ASEPJBL90murni besar50,000
4418/10 15:42CHIVASDmurni kecil50,000
4518/10 15:41JARWOSAKTImurni besar50,000
4618/10 15:41EXPRES078murni kecil5,000
4718/10 15:41GRYUS45murni besar5,000
4818/10 15:40BENTOEL46murni besar25,000
4918/10 15:40DES96murni besar50,000
5018/10 15:39QFWIEC6YVVbalak100,000

Ceme Multi Jackpot System

Jackpot dilihat dari gabungan kartu pemain dengan kartu bandar. Bandar harus membeli jackpot sebanyak jumlah player yang sedang duduk. Sebagai contoh bila terdapat 3 pemain duduk bermain, dan bandar memutuskan untuk membeli jackpot Rp 1.000, maka pada periode tersebut bandar akan membeli jackpot sebanyak 3xRp1.000 = Rp3.000.

Jackpot bukanlah suatu keharusan untuk dibeli, namun kami memberikan suatu fitur tambahan untuk member tercinta dari www.sakupoker.com.

Terdapat tiga pilihan harga jackpot yang bisa anda beli yaitu :100,500 dan 1000 rupiah.

Hadiah dari Multi jackpot system www.sakupoker.com

  1. Murni Kecil x 50 harga jackpot yang anda beli.
      (contoh:anda membeli 1000 maka:1000 X 50 = 50.000)
  2. Murni Besar x 50 harga jackpot yang anda beli
      (contoh:anda membeli 1000 maka:1000 X 50 = 50.000)
  3. BALAK x 200 harga jackpot yang anda beli
      (contoh:anda membeli 1000 maka:1000 X 200 = 200.000)
  4. ENAM DEWA x 6666 harga jackpot yang anda beli
      (contoh:anda membeli 1000 maka:1000 X 6666 = 6.666.000)

Demikian adalah penjelasan dari Multi Jackpot www.sakupoker.com terima kasih dan selamat bermain salam hoki dari kami

Ceme Jackpot Winner

TOP ENAM DEWA
No.TanggalNamaPriceWin
118/10 15:54SXKN800murni enam6,666,000
218/10 15:23DEINIETmurni enam666,600
318/10 15:23FIRMA27murni enam666,600
418/10 15:14NOK_MANOKmurni enam666,600
518/10 15:14NABIL66murni enam3,333,000
TOP BALAK
No.TanggalNamaPriceWin
118/10 15:57K9DWOURJ8Jbalak100,000
218/10 15:57LVITRUK99balak100,000
318/10 15:57HARIS_11balak20,000
418/10 15:57SOPI13balak100,000
518/10 15:56BOT4K12balak100,000
LATEST JACKPOT
No.TanggalNamaPriceWin
118/10 15:58TNZ07murni besar50,000
218/10 15:57NAYA555murni kecil50,000
318/10 15:57AKUANG99murni kecil50,000
418/10 15:57VLN93murni besar50,000
518/10 15:57ARYO771murni kecil25,000
618/10 15:57K9DWOURJ8Jbalak100,000
718/10 15:57JEPITYOmurni besar50,000
818/10 15:57LVITRUK99balak100,000
918/10 15:57HARIS_11balak20,000
1018/10 15:57NR471murni kecil50,000
1118/10 15:57SOPI13balak100,000
1218/10 15:56IRMAWAEmurni besar5,000
1318/10 15:56MA_LINKmurni besar50,000
1418/10 15:56D220BFAAmurni besar25,000
1518/10 15:56ICAANNmurni kecil25,000
1618/10 15:56GERY82murni kecil50,000
1718/10 15:56AARCAD1263murni besar5,000
1818/10 15:56MEMET8240murni besar25,000
1918/10 15:56MONTINERmurni besar5,000
2018/10 15:56SMILLE_999murni besar50,000
2118/10 15:56BOT4K12balak100,000
2218/10 15:56VLN93murni besar50,000
2318/10 15:56CEKOT45murni besar25,000
2418/10 15:56DM187930balak200,000
2518/10 15:56MASGEPmurni kecil50,000
2618/10 15:56RINDU_BEBbalak200,000
2718/10 15:56KAPOK1951balak200,000
2818/10 15:55HOKAHOKA09murni besar50,000
2918/10 15:55GR241295murni kecil5,000
3018/10 15:55H3H33murni kecil25,000
3118/10 15:55MUZKIMURAmurni kecil5,000
3218/10 15:55EW9CPWQM45murni besar50,000
3318/10 15:55BLACK00001murni besar5,000
3418/10 15:55EW9CPWQM45murni besar50,000
3518/10 15:55DENZEL24murni kecil50,000
3618/10 15:55BAWOR299murni besar50,000
3718/10 15:54SANGOJ45murni kecil50,000
3818/10 15:54FAHMI989murni besar50,000
3918/10 15:54KOMPORE765murni kecil50,000
4018/10 15:54RICHARDMCmurni besar25,000
4118/10 15:54PANASNDESmurni besar50,000
4218/10 15:54SXKN800murni enam6,666,000
4318/10 15:54FIDA991balak100,000
4418/10 15:54GPLDbalak200,000
4518/10 15:54PUAKE87murni kecil50,000
4618/10 15:53MBAH_WIRY0balak100,000
4718/10 15:53A01NCEKbalak200,000
4818/10 15:53ICAANNmurni besar25,000
4918/10 15:53KEZU1KI36Emurni besar50,000
5018/10 15:53QUBIL90balak20,000